Flag for Germany Weather past 2 weeks in Fürstenwalde/Spree, Brandenburg, Germany

Now
57 °F

Clear.


Feels Like: 57 °F
Forecast: 57 / 73 °F
Wind: 5 mph from East

Location: Lindenberg

Current Time: Sep 18, 2014 at 5:41:52 AM

Latest Report: Sep 18, 2014 at 4:00 AM


Visibility: 11 mi

Pressure: 30.01 "Hg

Humidity: 81%

Dew point: 51 °F

Location of Fürstenwalde/SpreeLocation

Historic Weather in Fürstenwalde/Spree — Graph

°F

Fürstenwalde/Spree temperature yesterday

Maximum temperature yesterday: 74 °F (at 4:00 PM)
Minimum temperature yesterday: 54 °F (at 7:00 AM)
Average temperature yesterday: 64 °F

Past Weeks' High & Low Weather Summary

 TemperatureHumidityPressure
High78 °F (Sep 7, 6:00 PM)99% (Sep 8, 7:00 AM)30.28 "Hg (Sep 8, 7:00 AM)
Low52 °F (Sep 11, 7:00 AM)48% (Sep 15, 5:00 PM)29.87 "Hg (Sep 6, 6:00 PM)
Average64 °F79%30.05 "Hg
* Reported Sep 3 4:00 AM — Sep 18 4:00 AM, Fürstenwalde/Spree, Weather by CustomWeather, © 2014

Note: Actual official high and low records may vary slightly from our data, if they occured in-between our weather recording intervals... More about our weather records

Advertising

Fürstenwalde/Spree weather history for previous 24 hours

 ConditionsComfort  
Time TempWeatherWind HumidityBarometerVisibility
4:00 AM
Sep 18
57 °FClear.5 mph81%30.01 "Hg11 mi
3:00 AM58 °FClear.3 mph77%30.01 "Hg12 mi
2:00 AM59 °FClear.5 mph74%30.01 "Hg12 mi
1:00 AM61 °FClear.5 mph71%30.01 "Hg16 mi
12:00 AM61 °FClear.3 mph72%30.02 "Hg16 mi
10:00 PM
Sep 17
65 °FClear.5 mph67%30.02 "Hg12 mi
9:00 PM65 °FClear.3 mph70%30.02 "Hg12 mi
8:00 PM67 °FClear.3 mph70%30.01 "Hg9 mi
7:00 PM69 °FSunny.3 mph68%30.00 "Hg11 mi
6:00 PM72 °FSunny.3 mph63%30.00 "Hg12 mi
5:00 PM73 °FPassing clouds.5 mph59%30.01 "Hg12 mi
4:00 PM74 °FPassing clouds.3 mph58%30.01 "Hg12 mi
3:00 PM73 °FPassing clouds.5 mph61%30.02 "Hg9 mi
2:00 PM72 °FPassing clouds.5 mph61%30.03 "Hg7 mi
1:00 PM70 °FSunny.3 mph68%30.05 "Hg7 mi
12:00 PM67 °FPassing clouds.3 mph72%30.06 "Hg6 mi
10:00 AM60 °FSunny.3 mph81%30.09 "Hg7 mi
9:00 AM56 °FSunny.3 mph86%30.08 "Hg9 mi
8:00 AM54 °FSunny.3 mph88%30.08 "Hg7 mi
7:00 AM54 °FPassing clouds.3 mph88%30.07 "Hg9 mi
6:00 AM55 °FClear.3 mph86%30.08 "Hg12 mi
Weather by CustomWeather, © 2014

See weather overviewHow to use our weather pages